TimePDT,TemperatureF,Dew PointF,Humidity,Sea Level PressureIn,VisibilityMPH,Wind Direction,Wind SpeedMPH,Gust SpeedMPH,PrecipitationIn,Events,Conditions,WindDirDegrees,DateUTC
12:15 AM,50.0,44.6,82,30.24,10.0,West,12.7,-,N/A,,Mostly Cloudy,280,2013-04-27 07:15:00
12:56 AM,50.0,44.1,80,30.25,10.0,West,12.7,-,N/A,,Mostly Cloudy,270,2013-04-27 07:56:00
1:56 AM,50.0,45.0,83,30.24,10.0,West,12.7,-,N/A,,Overcast,260,2013-04-27 08:56:00
2:07 AM,50.0,44.6,82,30.23,10.0,West,9.2,-,N/A,,Overcast,260,2013-04-27 09:07:00
2:56 AM,50.0,45.0,83,30.23,10.0,West,8.1,-,N/A,,Overcast,270,2013-04-27 09:56:00
3:56 AM,50.0,45.0,83,30.22,10.0,WSW,9.2,-,N/A,,Overcast,250,2013-04-27 10:56:00
4:56 AM,48.9,45.0,86,30.22,10.0,SW,4.6,-,N/A,,Overcast,230,2013-04-27 11:56:00
5:56 AM,48.9,45.0,86,30.23,10.0,West,5.8,-,N/A,,Overcast,280,2013-04-27 12:56:00
6:56 AM,48.9,45.0,86,30.23,9.0,Calm,Calm,-,N/A,,Overcast,0,2013-04-27 13:56:00
7:56 AM,48.9,45.0,86,30.24,9.0,Calm,Calm,-,N/A,,Overcast,0,2013-04-27 14:56:00
8:56 AM,50.0,46.0,86,30.25,9.0,Calm,Calm,-,N/A,,Overcast,0,2013-04-27 15:56:00
9:56 AM,51.1,46.0,83,30.25,9.0,NW,4.6,-,N/A,,Overcast,310,2013-04-27 16:56:00
10:56 AM,55.0,46.0,72,30.24,10.0,WNW,9.2,-,N/A,,Partly Cloudy,290,2013-04-27 17:56:00
11:56 AM,57.9,46.0,65,30.23,10.0,WNW,12.7,-,N/A,,Partly Cloudy,300,2013-04-27 18:56:00
12:56 PM,60.1,46.0,60,30.21,10.0,NW,13.8,-,N/A,,Partly Cloudy,310,2013-04-27 19:56:00
1:56 PM,61.0,46.9,60,30.18,10.0,WNW,17.3,-,N/A,,Partly Cloudy,300,2013-04-27 20:56:00
2:56 PM,59.0,46.9,64,30.16,10.0,WNW,23.0,-,N/A,,Partly Cloudy,290,2013-04-27 21:56:00
3:56 PM,57.9,46.9,67,30.14,10.0,WNW,24.2,-,N/A,,Partly Cloudy,290,2013-04-27 22:56:00
4:56 PM,55.9,46.9,72,30.13,10.0,WNW,23.0,28.8,N/A,,Partly Cloudy,290,2013-04-27 23:56:00
5:56 PM,55.0,46.0,72,30.13,10.0,WNW,23.0,28.8,N/A,,Partly Cloudy,290,2013-04-28 00:56:00
6:56 PM,53.1,46.0,77,30.12,10.0,WNW,16.1,-,N/A,Fog,Scattered Clouds,290,2013-04-28 01:56:00
7:56 PM,50.0,45.0,83,30.11,9.0,WNW,17.3,-,N/A,Fog,Scattered Clouds,290,2013-04-28 02:56:00
8:56 PM,50.0,45.0,83,30.11,10.0,WNW,16.1,-,N/A,Fog,Partly Cloudy,290,2013-04-28 03:56:00
9:56 PM,50.0,46.0,86,30.12,10.0,WNW,13.8,-,N/A,,Partly Cloudy,290,2013-04-28 04:56:00
10:56 PM,50.0,45.0,83,30.12,10.0,WNW,12.7,-,N/A,,Partly Cloudy,290,2013-04-28 05:56:00
11:56 PM,50.0,46.0,86,30.10,10.0,WNW,9.2,-,N/A,,Partly Cloudy,290,2013-04-28 06:56:00